Total_Precipitation_Accumulation
0.08 0.12 0.12 0.13 0.14 0.19 0.23 0.27 0.32 0.45 0.55 0.59 0.65 0.66 0.49 0.45 0.49 0.47 0.41 0.42 0.44 0.44 0.43 0.42 0.40 0.38 0.36 0.36 0.39 0.40 0.40 0.39 0.42 0.48 0.44 0.40 0.42 0.44 0.43 0.41 0.43 0.45 0.46
0.08 0.14 0.17 0.16 0.13 0.16 0.19 0.23 0.27 0.35 0.45 0.48 0.57 0.67 0.60 0.52 0.53 0.49 0.45 0.44 0.44 0.42 0.41 0.40 0.40 0.40 0.39 0.36 0.35 0.38 0.41 0.38 0.37 0.45 0.49 0.42 0.37 0.34 0.31 0.32 0.35 0.40 0.46
0.06 0.12 0.16 0.18 0.18 0.16 0.17 0.20 0.24 0.30 0.40 0.49 0.59 0.71 0.81 0.68 0.61 0.55 0.50 0.49 0.47 0.46 0.45 0.43 0.43 0.42 0.44 0.41 0.35 0.35 0.41 0.42 0.40 0.43 0.59 0.66 0.48 0.34 0.26 0.27 0.29 0.32 0.34
0.05 0.09 0.14 0.17 0.19 0.19 0.19 0.21 0.26 0.29 0.33 0.43 0.54 0.59 0.67 0.64 0.49 0.43 0.44 0.45 0.44 0.44 0.43 0.43 0.43 0.44 0.45 0.44 0.44 0.41 0.41 0.44 0.44 0.42 0.44 0.51 0.53 0.59 0.42 0.21 0.19 0.23 0.26
0.04 0.06 0.10 0.14 0.19 0.22 0.22 0.22 0.29 0.32 0.32 0.35 0.43 0.52 0.60 0.61 0.59 0.50 0.46 0.47 0.47 0.44 0.43 0.41 0.41 0.42 0.43 0.43 0.45 0.46 0.48 0.48 0.48 0.49 0.46 0.42 0.40 0.47 0.64 0.39 0.19 0.19 0.19
0.05 0.06 0.10 0.15 0.20 0.25 0.26 0.28 0.29 0.31 0.32 0.36 0.40 0.46 0.53 0.59 0.66 0.62 0.54 0.50 0.51 0.51 0.47 0.43 0.42 0.42 0.41 0.41 0.42 0.44 0.46 0.48 0.49 0.50 0.50 0.54 0.55 0.50 0.59 0.55 0.32 0.25 0.20
0.07 0.07 0.08 0.14 0.20 0.23 0.25 0.28 0.30 0.33 0.34 0.36 0.39 0.41 0.45 0.50 0.55 0.61 0.58 0.54 0.51 0.53 0.56 0.52 0.45 0.43 0.44 0.45 0.46 0.49 0.48 0.49 0.50 0.51 0.52 0.56 0.58 0.58 0.64 0.70 0.56 0.39 0.27
0.09 0.10 0.08 0.09 0.14 0.19 0.21 0.25 0.28 0.29 0.35 0.37 0.38 0.40 0.43 0.46 0.45 0.51 0.57 0.56 0.51 0.51 0.58 0.62 0.61 0.54 0.51 0.54 0.56 0.58 0.58 0.58 0.58 0.57 0.58 0.63 0.61 0.63 0.70 0.78 0.85 0.73 0.42
0.10 0.10 0.09 0.09 0.11 0.13 0.16 0.21 0.26 0.28 0.30 0.35 0.41 0.42 0.42 0.44 0.42 0.42 0.48 0.53 0.50 0.47 0.51 0.60 0.68 0.72 0.68 0.64 0.66 0.69 0.69 0.71 0.70 0.69 0.68 0.69 0.65 0.63 0.66 0.73 0.90 1.12 0.94
0.11 0.11 0.10 0.10 0.11 0.13 0.14 0.19 0.25 0.28 0.32 0.32 0.37 0.43 0.44 0.45 0.46 0.45 0.44 0.47 0.52 0.52 0.49 0.51 0.59 0.68 0.73 0.73 0.72 0.73 0.76 0.80 0.81 0.82 0.80 0.77 0.76 0.76 0.76 0.79 0.84 1.01 1.20
0.16 0.16 0.12 0.10 0.10 0.13 0.15 0.18 0.25 0.27 0.32 0.35 0.36 0.39 0.46 0.49 0.52 0.55 0.54 0.52 0.55 0.60 0.59 0.55 0.53 0.55 0.63 0.74 0.82 0.82 0.83 0.87 0.87 0.87 0.89 0.88 0.88 0.92 0.92 0.93 0.94 0.99 1.18
0.17 0.16 0.13 0.13 0.13 0.15 0.17 0.20 0.27 0.30 0.32 0.33 0.37 0.41 0.47 0.51 0.55 0.59 0.62 0.63 0.63 0.65 0.67 0.67 0.63 0.57 0.57 0.66 0.75 0.80 0.82 0.87 0.88 0.90 0.95 0.96 0.97 1.00 1.01 1.06 1.06 1.04 1.08
0.12 0.13 0.14 0.15 0.19 0.19 0.19 0.24 0.30 0.31 0.34 0.34 0.36 0.40 0.47 0.55 0.62 0.65 0.66 0.67 0.69 0.73 0.74 0.75 0.76 0.71 0.70 0.75 0.78 0.80 0.82 0.83 0.83 0.85 0.92 0.96 1.04 1.08 1.06 1.08 1.08 1.04 0.98
0.10 0.13 0.15 0.16 0.20 0.22 0.22 0.27 0.30 0.31 0.36 0.39 0.40 0.46 0.53 0.58 0.66 0.70 0.70 0.71 0.73 0.75 0.78 0.80 0.81 0.84 0.89 1.00 1.03 0.94 0.92 0.86 0.83 0.82 0.87 0.94 1.06 1.15 1.23 1.30 1.21 1.14 1.19
0.13 0.16 0.18 0.18 0.22 0.25 0.26 0.31 0.37 0.39 0.46 0.54 0.54 0.54 0.58 0.60 0.59 0.63 0.67 0.69 0.73 0.76 0.75 0.74 0.77 0.82 0.95 1.26 1.29 1.11 1.01 0.95 0.89 0.84 0.84 0.88 1.06 1.28 1.49 1.62 1.56 1.54 1.60
0.16 0.16 0.20 0.22 0.24 0.30 0.37 0.43 0.50 0.53 0.56 0.62 0.65 0.60 0.57 0.58 0.61 0.60 0.60 0.64 0.68 0.69 0.68 0.67 0.68 0.77 0.94 1.36 1.41 1.20 0.98 0.94 0.94 0.92 0.85 0.82 0.91 1.03 1.23 1.46 1.55 1.65 1.79
0.18 0.18 0.21 0.27 0.30 0.35 0.45 0.53 0.55 0.56 0.60 0.62 0.66 0.69 0.61 0.57 0.59 0.58 0.55 0.54 0.56 0.59 0.60 0.60 0.60 0.62 0.80 1.22 1.30 1.15 0.90 0.81 0.82 0.82 0.77 0.76 0.76 0.83 0.80 0.95 1.06 1.16 1.36
0.24 0.24 0.25 0.28 0.34 0.40 0.48 0.55 0.59 0.62 0.64 0.65 0.62 0.63 0.57 0.51 0.53 0.56 0.52 0.47 0.46 0.51 0.53 0.53 0.52 0.49 0.56 0.95 1.21 1.09 0.78 0.71 0.72 0.73 0.74 0.76 0.74 0.74 0.83 0.92 0.95 0.89 0.92
0.23 0.22 0.23 0.25 0.31 0.37 0.42 0.46 0.51 0.54 0.57 0.59 0.55 0.54 0.49 0.47 0.51 0.55 0.51 0.46 0.43 0.44 0.46 0.48 0.51 0.49 0.49 0.74 1.13 1.17 0.81 0.77 0.72 0.72 0.85 0.90 0.81 0.87 1.08 1.20 1.16 0.96 0.83
0.18 0.18 0.19 0.19 0.22 0.27 0.30 0.32 0.36 0.40 0.44 0.46 0.48 0.53 0.48 0.43 0.47 0.52 0.49 0.47 0.45 0.46 0.48 0.50 0.57 0.56 0.50 0.66 1.07 1.32 0.94 0.84 0.74 0.74 0.87 1.15 1.12 1.12 1.21 1.27 1.30 1.24 0.94
0.20 0.19 0.19 0.22 0.25 0.29 0.30 0.31 0.29 0.32 0.34 0.35 0.38 0.48 0.51 0.47 0.45 0.46 0.48 0.48 0.48 0.49 0.50 0.52 0.56 0.58 0.53 0.57 0.87 1.34 1.22 1.00 0.90 0.88 0.93 1.07 1.18 1.19 1.22 1.29 1.27 1.31 1.26
0.22 0.24 0.25 0.30 0.34 0.34 0.30 0.27 0.26 0.25 0.26 0.30 0.33 0.38 0.46 0.45 0.45 0.45 0.45 0.45 0.48 0.52 0.53 0.54 0.55 0.56 0.57 0.59 0.76 1.12 1.34 1.26 1.05 0.99 0.90 0.98 1.14 1.20 1.23 1.19 1.20 1.30 1.35
0.26 0.27 0.28 0.33 0.37 0.33 0.27 0.26 0.25 0.23 0.23 0.27 0.31 0.35 0.41 0.41 0.41 0.43 0.44 0.43 0.45 0.51 0.56 0.57 0.59 0.58 0.59 0.63 0.78 0.90 1.02 1.16 1.08 1.05 1.20 1.18 1.15 1.10 1.04 1.04 1.11 1.13 1.09
0.31 0.31 0.29 0.32 0.36 0.31 0.27 0.25 0.23 0.22 0.23 0.28 0.33 0.38 0.42 0.44 0.43 0.41 0.41 0.42 0.48 0.62 0.71 0.71 0.69 0.64 0.61 0.70 0.90 0.96 0.93 1.02 1.06 1.06 1.15 1.16 1.05 0.94 0.90 0.93 0.94 0.93 1.00
0.39 0.37 0.36 0.37 0.36 0.29 0.24 0.25 0.27 0.28 0.30 0.33 0.38 0.42 0.46 0.47 0.46 0.43 0.43 0.47 0.51 0.74 1.00 0.97 0.96 0.97 0.94 1.01 1.32 1.34 1.24 1.24 1.27 1.28 1.26 1.14 1.00 0.92 0.84 0.80 0.77 0.79 0.91
0.44 0.41 0.38 0.34 0.31 0.28 0.25 0.26 0.28 0.32 0.34 0.35 0.37 0.43 0.49 0.52 0.50 0.47 0.47 0.49 0.52 0.62 0.70 0.76 0.89 0.91 1.06 1.20 1.21 1.18 1.18 1.22 1.27 1.30 1.22 1.02 0.91 0.86 0.82 0.81 0.81 0.79 0.82